| time (UTC) | temp C | wind direction | speed KPH | gust KPH | rain 1hr cm | rain 24hr cm | rain mn cm | humidity % | barometer mb |
| 20260507113004 | 12 | 264 | 4.8 | 16.1 | 0.00 | 0.00 | 0.00 | 79 | 1025.3 |
| 20260507111506 | 12 | 246 | 4.8 | 14.5 | 0.00 | 0.00 | 0.00 | 80 | 1025.4 |
| 20260507110006 | 12 | 271 | 4.8 | 14.5 | 0.00 | 0.00 | 0.00 | 80 | 1025.4 |
| 20260507104504 | 12 | 264 | 4.8 | 14.5 | 0.00 | 0.00 | 0.00 | 80 | 1025.4 |
| 20260507103005 | 12 | 269 | 6.4 | 19.3 | 0.00 | 0.00 | 0.00 | 80 | 1025.5 |
| 20260507101506 | 12 | 242 | 4.8 | 19.3 | 0.00 | 0.00 | 0.00 | 80 | 1025.7 |
| 20260507100005 | 12 | 274 | 4.8 | 19.3 | 0.00 | 0.00 | 0.00 | 80 | 1025.7 |
| 20260507090005 | 12 | 248 | 4.8 | 12.9 | 0.00 | 0.00 | 0.00 | 80 | 1025.9 |
| 20260507084505 | 12 | 272 | 6.4 | 11.3 | 0.00 | 0.00 | 0.00 | 80 | 1026.1 |
| 20260507083005 | 12 | 280 | 4.8 | 12.9 | 0.00 | 0.00 | 0.00 | 80 | 1026.1 |
| 20260507081506 | 12 | 282 | 8.0 | 16.1 | 0.00 | 0.00 | 0.00 | 79 | 1026.1 |
| 20260507080004 | 12 | 280 | 8.0 | 12.9 | 0.00 | 0.00 | 0.00 | 79 | 1026.0 |
| 20260507074505 | 12 | 253 | 9.7 | 16.1 | 0.00 | 0.00 | 0.00 | 79 | 1026.0 |
| 20260507073005 | 13 | 240 | 3.2 | 19.3 | 0.00 | 0.00 | 0.00 | 79 | 1025.9 |
| 20260507071505 | 13 | 268 | 8.0 | 19.3 | 0.00 | 0.00 | 0.00 | 78 | 1025.9 |
| 20260507070009 | 13 | 241 | 8.0 | 20.9 | 0.00 | 0.00 | 0.00 | 78 | 1025.9 |
| 20260507064505 | 13 | 282 | 4.8 | 19.3 | 0.00 | 0.00 | 0.00 | 79 | 1025.9 |
| 20260507063004 | 13 | 250 | 9.7 | 20.9 | 0.00 | 0.00 | 0.00 | 78 | 1025.9 |
| 20260507061505 | 13 | 222 | 4.8 | 14.5 | 0.00 | 0.00 | 0.00 | 78 | 1025.8 |
| 20260507060005 | 13 | 248 | 8.0 | 19.3 | 0.00 | 0.00 | 0.00 | 78 | 1025.7 |
| 20260507054505 | 13 | 255 | 4.8 | 22.5 | 0.00 | 0.00 | 0.00 | 78 | 1025.7 |
| 20260507053005 | 13 | 242 | 8.0 | 22.5 | 0.00 | 0.00 | 0.00 | 78 | 1025.7 |
| 20260507051505 | 14 | 265 | 3.2 | 19.3 | 0.00 | 0.00 | 0.00 | 79 | 1025.6 |
| 20260507050006 | 14 | 268 | 11.3 | 22.5 | 0.00 | 0.00 | 0.00 | 78 | 1025.7 |
| 20260507043005 | 15 | 264 | 9.7 | 19.3 | 0.00 | 0.00 | 0.00 | 79 | 1025.4 |
| 20260507041505 | 15 | 267 | 9.7 | 20.9 | 0.00 | 0.00 | 0.00 | 79 | 1025.4 |
| 20260507034504 | 15 | 263 | 11.3 | 20.9 | 0.00 | 0.00 | 0.00 | 79 | 1024.7 |
| 20260507033005 | 16 | 261 | 3.2 | 19.3 | 0.00 | 0.00 | 0.00 | 78 | 1024.6 |
| 20260507031504 | 16 | 228 | 6.4 | 19.3 | 0.00 | 0.00 | 0.00 | 79 | 1024.4 |
| 20260507030004 | 16 | 252 | 4.8 | 14.5 | 0.00 | 0.00 | 0.00 | 78 | 1024.2 |
| 20260507024505 | 16 | 262 | 4.8 | 12.9 | 0.00 | 0.00 | 0.00 | 77 | 1024.1 |
| 20260507023005 | 17 | 261 | 0.0 | 1.6 | 0.00 | 0.00 | 0.00 | 76 | 1023.9 |
| 20260507021504 | 17 | 246 | 3.2 | 12.9 | 0.00 | 0.00 | 0.00 | 74 | 1024.0 |
| 20260507020004 | 18 | 263 | 4.8 | 14.5 | 0.00 | 0.00 | 0.00 | 73 | 1024.1 |
| 20260507014505 | 18 | 246 | 0.0 | 9.7 | 0.00 | 0.00 | 0.00 | 73 | 1024.2 |
| 20260507013004 | 18 | 261 | 0.0 | 1.6 | 0.00 | 0.00 | 0.00 | 72 | 1024.2 |
| 20260507010004 | 18 | 267 | 0.0 | 0.0 | 0.00 | 0.00 | 0.00 | 71 | 1024.4 |
| 20260507004504 | 18 | 267 | 1.6 | 9.7 | 0.00 | 0.00 | 0.00 | 69 | 1024.4 |
| 20260507003005 | 18 | 236 | 3.2 | 8.0 | 0.00 | 0.00 | 0.00 | 70 | 1024.4 |
| 20260507001504 | 18 | 248 | 1.6 | 8.0 | 0.00 | 0.00 | 0.00 | 70 | 1024.3 |
| 20260507000004 | 18 | 261 | 1.6 | 4.8 | 0.00 | 0.00 | 0.00 | 70 | 1024.4 |
| 20260506234505 | 18 | 265 | 0.0 | 4.8 | 0.00 | 0.00 | 0.00 | 68 | 1024.4 |
| 20260506233004 | 18 | 273 | 1.6 | 4.8 | 0.00 | 0.00 | 0.00 | 68 | 1024.5 |
| 20260506231505 | 18 | 244 | 0.0 | 0.0 | 0.00 | 0.00 | 0.00 | 70 | 1024.7 |
| 20260506230005 | 18 | 247 | 0.0 | 8.0 | 0.00 | 0.00 | 0.00 | 68 | 1024.8 |
| 20260506224504 | 18 | 232 | 3.2 | 12.9 | 0.00 | 0.00 | 0.00 | 69 | 1025.0 |
| 20260506223004 | 18 | 245 | 3.2 | 11.3 | 0.00 | 0.00 | 0.00 | 70 | 1025.0 |
| 20260506220005 | 19 | 271 | 6.4 | 16.1 | 0.00 | 0.00 | 0.00 | 68 | 1025.0 |
| 20260506213004 | 19 | 239 | 0.0 | 9.7 | 0.00 | 0.00 | 0.00 | 70 | 1025.2 |
| 20260506211504 | 18 | 145 | 1.6 | 12.9 | 0.00 | 0.00 | 0.00 | 69 | 1025.3 |
| 20260506210005 | 19 | 182 | 0.0 | 8.0 | 0.00 | 0.00 | 0.00 | 68 | 1025.3 |
| 20260506204504 | 19 | 255 | 0.0 | 11.3 | 0.00 | 0.00 | 0.00 | 70 | 1025.2 |
| 20260506203005 | 20 | 127 | 0.0 | 3.2 | 0.00 | 0.00 | 0.00 | 70 | 1025.4 |
| 20260506200005 | 18 | 203 | 0.0 | 16.1 | 0.00 | 0.00 | 0.00 | 72 | 1025.5 |
| 20260506194505 | 18 | 190 | 0.0 | 4.8 | 0.00 | 0.00 | 0.00 | 72 | 1025.6 |
| 20260506193004 | 17 | 256 | 0.0 | 12.9 | 0.00 | 0.00 | 0.00 | 78 | 1025.6 |
| 20260506191505 | 17 | 248 | 0.0 | 0.0 | 0.00 | 0.00 | 0.00 | 77 | 1025.5 |
| 20260506190005 | 17 | 226 | 0.0 | 0.0 | 0.00 | 0.00 | 0.00 | 78 | 1025.6 |
| 20260506184504 | 16 | 242 | 0.0 | 0.0 | 0.00 | 0.00 | 0.00 | 80 | 1025.6 |
| 20260506183005 | 16 | 258 | 3.2 | 12.9 | 0.00 | 0.00 | 0.00 | 79 | 1025.5 |
| 20260506180005 | 15 | 252 | 0.0 | 12.9 | 0.00 | 0.00 | 0.00 | 83 | 1025.4 |
| 20260506174504 | 15 | 269 | 1.6 | 14.5 | 0.00 | 0.00 | 0.00 | 83 | 1025.4 |
| 20260506171504 | 15 | 228 | 0.0 | 9.7 | 0.00 | 0.00 | 0.00 | 82 | 1025.4 |
| 20260506170005 | 15 | 272 | 1.6 | 11.3 | 0.00 | 0.00 | 0.00 | 82 | 1025.2 |
| 20260506164504 | 15 | 219 | 3.2 | 11.3 | 0.00 | 0.00 | 0.00 | 82 | 1025.2 |
| 20260506163004 | 15 | 237 | 4.8 | 19.3 | 0.00 | 0.00 | 0.00 | 82 | 1025.0 |
| 20260506161504 | 15 | 236 | 3.2 | 9.7 | 0.00 | 0.00 | 0.00 | 81 | 1024.8 |
| 20260506160004 | 13 | 290 | 0.0 | 4.8 | 0.00 | 0.00 | 0.00 | 87 | 1024.9 |
| 20260506154504 | 13 | 232 | 0.0 | 9.7 | 0.00 | 0.00 | 0.00 | 87 | 1025.3 |
| 20260506153004 | 13 | 245 | 1.6 | 14.5 | 0.00 | 0.00 | 0.00 | 86 | 1025.4 |
| 20260506151504 | 13 | 239 | 3.2 | 9.7 | 0.00 | 0.00 | 0.00 | 85 | 1025.3 |
| 20260506150005 | 13 | 241 | 0.0 | 3.2 | 0.00 | 0.00 | 0.00 | 86 | 1025.1 |
| 20260506144504 | 13 | 283 | 0.0 | 4.8 | 0.00 | 0.00 | 0.00 | 85 | 1024.7 |
| 20260506143004 | 13 | 333 | 0.0 | 3.2 | 0.00 | 0.00 | 0.00 | 85 | 1024.5 |
| 20260506141504 | 13 | 259 | 1.6 | 9.7 | 0.00 | 0.00 | 0.00 | 85 | 1024.5 |
| 20260506133004 | 13 | 273 | 0.0 | 0.0 | 0.00 | 0.00 | 0.00 | 89 | 1024.1 |
| 20260506131504 | 13 | 273 | 0.0 | 0.0 | 0.00 | 0.00 | 0.00 | 89 | 1024.0 |
| 20260506130005 | 13 | 273 | 0.0 | 0.0 | 0.00 | 0.00 | 0.00 | 88 | 1024.1 |
| 20260506124505 | 13 | 253 | 1.6 | 11.3 | 0.00 | 0.00 | 0.00 | 88 | 1024.1 |
| 20260506123005 | 13 | 265 | 3.2 | 8.0 | 0.00 | 0.00 | 0.00 | 88 | 1024.0 |
| 20260506121504 | 13 | 272 | 0.0 | 4.8 | 0.00 | 0.00 | 0.00 | 88 | 1023.9 |
| 20260506120005 | 13 | 275 | 1.6 | 11.3 | 0.00 | 0.00 | 0.00 | 87 | 1023.7 |
| 20260506114504 | 13 | 302 | 1.6 | 14.5 | 0.00 | 0.00 | 0.00 | 87 | 1023.5 |